カタログに戻る

ONEWEB-0293

運用中通信PO
NORAD 49082·PAYLOAD·🇬🇧 United Kingdom

打ち上げ Aug 21, 2021 から Baikonur Cosmodrome

Loading…

次のパス (今後24時間)

TLE

最新Source: CelesTrak SupGP

元期: Sep 14, 2026, 14:08 UTC

1 49082C 21075H   26257.58942546  .00003016  00000+0  77771-2 0  2570
2 49082  87.9200 348.1110 0001712 102.0390  11.7002 13.17644947    13

AllMySatでONEWEB-0293をリアルタイム追跡

Download on the App Store